Regional Weather Roundup
Issued by NWS

Home | Current Version | Previous Version | Text Only | Print | Product List | Glossary Off
Versions: 1 2 3 4 5 6 7 8 9 10 11 12 13 14 15 16 17 18 19 20 21 22 23 24 25 26 27 28

000
ASUS45 KSLC 280410
RWRUT

UTAH REGIONAL WEATHER ROUNDUP
NATIONAL WEATHER SERVICE SALT LAKE CITY UT
1000 PM MDT TUE JUN 27 2017

UTZ001>011-023>025-280500-

NORTHERN UTAH

CITY           SKY/WX    TMP DP  RH WIND       PRES   REMARKS
BRIGHAM CITY   CLEAR     79  30  17 CALM      29.88R
HILL AFB       CLEAR     73  38  28 E10       29.89S
LOGAN          CLEAR     66  46  48 NW5       29.90R
OGDEN          CLEAR     75  39  27 E9        29.86S
SALT LAKE CITY CLEAR     78  35  21 E8        29.85R
TOOELE VALLEY  CLEAR     66  41  39 S8        29.87R
WENDOVER         N/A     82  24  12 NW10      29.85S
HEBER CITY     CLEAR     68  32  26 E3        29.95R
WEST JORDAN    CLEAR     72  45  37 CALM      29.89S

$$

UTZ011>015-024>027-280500-

CENTRAL/NORTHEAST UTAH

CITY           SKY/WX    TMP DP  RH WIND       PRES   REMARKS
PROVO AIRPORT  CLEAR     77  39  25 NW12      29.88R
MOAB/CANYONLAN PTCLDY    84  22  10 NW9       29.79R
DELTA          CLEAR     77  27  15 NE9       29.86R
PRICE          CLEAR     76  27  16 NW14      29.94S
VERNAL         CLEAR     79  24  13 W14       29.89R

$$

UTZ013>016-019>022-027-280500-

SOUTHERN UTAH

CITY           SKY/WX    TMP DP  RH WIND       PRES   REMARKS
BRYCE CANYON   CLOUDY    68  20  16 W14       30.13R
CEDAR CITY     CLEAR     71  22  15 S7        29.96R
MILFORD        CLEAR     83  21  10 SW23G30   29.87R
ST GEORGE      CLEAR     93  23   8 SW3       29.76R
HANKSVILLE     CLEAR     82  23  11 N6        29.80R
BLANDING       CLEAR     64  21  19 NW6       30.02R

$$

REGIONAL REPORTS     COLORADO/ARIZONA

CITY           SKY/WX    TMP DP  RH WIND       PRES   REMARKS
CRAIG, CO      CLOUDY    68  36  30 SW6       30.00R
GRAND JUNCTION PTCLDY    84  24  11 NW3       29.82R
RIFLE, CO      CLEAR     77  25  14 E3        29.90R
MONTROSE, CO   CLEAR     71  23  16 SE7       29.94R
CORTEZ, CO     CLEAR     61  31  32 E7        29.97R
COLORADO CITY    N/A     77  21  12 CALM      29.97R
PAGE, AZ       CLEAR     92  19   7 W9        29.85R
GRAND CANYON   CLEAR     72  12  10 SW8       30.11R
KINGMAN, AZ    CLEAR     85  11   6 SW13      29.84S
FLAGSTAFF, AZ  CLEAR     70   3   7 SW10      30.16R

$$

REGIONAL REPORTS    NEVADA/IDAHO/WYOMING

CITY           SKY/WX    TMP DP  RH WIND       PRES   REMARKS
LAS VEGAS, NV  CLEAR    100   3   3 SW15      29.69R HX  92
ELY, NY        CLEAR     69  15  12 NW3       30.01R
ELKO, NV       CLEAR     70  29  21 S6        29.94R
POCATELLO, ID  CLEAR     71  40  32 SW14      29.89S
BURLEY, ID     CLEAR     67  52  58 S6        29.86S
FORT BRIDGER,    N/A     62  29  29 W5        30.09S
EVANSTON, WY   CLEAR     63  33  32 W9        30.07F
ROCK SPRINGS,  CLEAR     64  31  28 N5        30.05R
KEMMERER, WY     N/A     57  32  38 E3        30.10R

$$




USA.gov is the U.S. government's official web portal to all federal, state and local government web resources and services.